Flag for India Weather past 2 weeks in Dindigul, Tamil Nadu, India

Now
90 °F

Passing clouds.


Feels Like: 103 °F
Forecast: 75 / 90 °F
Wind: 6 mph from Northeast

Location: Tiruchchirapalli

Current Time: Sep 2, 2015 at 9:02:31 PM

Latest Report: Sep 2, 2015 at 8:10 PM


Visibility: 4 mi

Pressure: 29.71 "Hg

Humidity: 67%

Dew point: 77 °F

Location of DindigulLocation

Historic Weather in Dindigul — Graph

°F

Dindigul temperature yesterday

Maximum temperature yesterday: 102 °F (at 3:10 PM)
Minimum temperature yesterday: 79 °F (at 11:10 PM)
Average temperature yesterday: 90 °F

Past Weeks' High & Low Weather Summary

 TemperatureHumidityPressure
High102 °F (Aug 30, 3:40 PM)94% (Aug 21, 11:40 PM)29.89 "Hg (Aug 21, 11:40 PM)
Low77 °F (Aug 21, 11:40 PM)33% (Aug 28, 2:40 PM)29.62 "Hg (Aug 27, 4:10 PM)
Average87 °F63%29.76 "Hg
* Reported Aug 18 7:40 PM — Sep 2 7:40 PM, Dindigul, Weather by CustomWeather, © 2015

Note: Actual official high and low records may vary slightly from our data, if they occured in-between our weather recording intervals... More about our weather records

Advertising

Dindigul weather history for previous 24 hours

 ConditionsComfort  
Time TempWeatherWind HumidityBarometerVisibility
7:40 PM
Wed, Sep 2
90 °FPassing clouds.2 mph67%29.68 "Hg4 mi
7:10 PM90 °FPassing clouds.2 mph67%29.68 "Hg4 mi
6:40 PM91 °FScattered clouds.2 mph63%29.68 "Hg4 mi
6:10 PM93 °FScattered clouds.5 mph53%29.65 "Hg4 mi
5:40 PM95 °FScattered clouds.9 mph50%29.65 "Hg4 mi
5:10 PM97 °FScattered clouds.5 mph47%29.65 "Hg4 mi
4:40 PM97 °FScattered clouds.2 mph47%29.65 "Hg5 mi
4:10 PM99 °FPassing clouds.2 mph44%29.65 "Hg5 mi
3:40 PM99 °FPassing clouds.2 mph44%29.65 "Hg5 mi
3:10 PM97 °FPassing clouds.3 mph47%29.65 "Hg5 mi
2:40 PM97 °FPassing clouds.2 mph47%29.68 "Hg5 mi
2:10 PM95 °FPassing clouds.5 mph50%29.68 "Hg4 mi
1:40 PM95 °FPassing clouds.6 mph50%29.68 "Hg4 mi
1:10 PM95 °FPassing clouds.7 mph50%29.71 "Hg4 mi
12:40 PM95 °FPassing clouds.7 mph53%29.71 "Hg4 mi
12:10 PM93 °FPassing clouds.8 mph56%29.74 "Hg4 mi
11:40 AM91 °FPassing clouds.9 mph59%29.74 "Hg4 mi
11:10 AM91 °FPassing clouds.12 mph56%29.74 "Hg4 mi
10:40 AM90 °FPassing clouds.8 mph59%29.74 "Hg4 mi
10:10 AM88 °FScattered clouds.8 mph62%29.74 "Hg4 mi
9:10 AM86 °FScattered clouds.12 mph70%29.77 "Hg2 mi
8:40 AM84 °FHaze.13 mph74%29.77 "Hg2 mi
8:10 AM84 °FHaze.8 mph74%29.77 "Hg2 mi
7:40 AM82 °FFog.5 mph79%29.74 "Hg2 mi
7:10 AM81 °FFog.2 mph84%29.74 "Hg2 mi
6:40 AM81 °FFog.No wind84%29.74 "Hg2 mi
6:10 AM79 °FFog.No wind89%29.74 "Hg2 mi
5:40 AM79 °FFog.2 mph89%29.74 "Hg3 mi
5:10 AM79 °FFog.No wind89%29.74 "Hg3 mi
4:40 AM79 °FFog.No wind89%29.74 "Hg3 mi
4:10 AM79 °FFog.3 mph89%29.74 "Hg3 mi
3:10 AM79 °FFog.No wind89%29.74 "Hg3 mi
2:40 AM79 °FFog.5 mph89%29.77 "Hg3 mi
2:10 AM79 °FFog.5 mph89%29.77 "Hg3 mi
1:40 AM79 °FFog.3 mph89%29.77 "Hg3 mi
1:10 AM79 °FFog.6 mph89%29.77 "Hg3 mi
12:40 AM79 °FPartly cloudy.5 mph94%29.80 "Hg3 mi
11:40 PM
Tue, Sep 1
79 °FThunderstorms. Partly cloudy.9 mph94%29.83 "Hg2 mi
11:10 PM79 °FThunderstorms. Partly cloudy.10 mph94%29.83 "Hg2 mi
9:40 PM84 °FPartly cloudy.9 mph74%29.80 "Hg3 mi
9:10 PM84 °FPartly cloudy.No wind79%N/A3 mi
Weather by CustomWeather, © 2015

See weather overviewHow to use our weather pages